McAlester, OK

3:52 PM CDT on March 28, 2017 (GMT -0500)
McAlester Regional

Weather History for KMLC - October, 2012

Change the Weather History Date:

Wednesday, October 17, 2012

  Actual Average Record
Temperature  
Mean Temperature 68 °F -  
Max Temperature 82 °F 73 °F 91 °F (1972)
Min Temperature 54 °F 50 °F 35 °F (1976)
Cooling Degree Days 3    
Growing Degree Days 18 (Base 50)    
Moisture  
Dew Point 58 °F    
Average Humidity 70    
Maximum Humidity 88    
Minimum Humidity 39    
Precipitation  
Precipitation 0.00 in - - ()
Sea Level Pressure  
Sea Level Pressure 29.58 in    
Wind  
Wind Speed 12 mph (SSW)    
Max Wind Speed 17 mph    
Max Gust Speed 32 mph    
Visibility 10 miles    
Events      
Averages and records for this station are not official NWS values.
T = Trace of Precipitation, MM = Missing Value Source: NWS Daily Summary

Daily Weather History Graph

Daily Weather History Graph

Search for Another Location

Airport or City:

Trip Planner

Search our weather history database for the weather conditions in past years. The results will help you decide how hot, cold, wet, or windy it might be!

Date:

Astronomy

Oct. 17, 2012 Rise Set
Actual Time 7:31 AM CDT 6:45 PM CDT
Civil Twilight 7:05 AM CDT 7:10 PM CDT
Nautical Twilight 6:36 AM CDT 7:40 PM CDT
Astronomical Twilight 6:06 AM CDT 8:09 PM CDT
Moon 9:59 AM CDT (10/17) 8:29 PM CDT (10/17)
Length of Visible Light 12h 05m
Length of Day
11h 14m
Waxing Crescent, 7% of the Moon is Illuminated
Oct 17
Waxing Crescent
Oct 21
First Quarter
Oct 29
Full
Nov 6
Last Quarter
Nov 13
New

Hourly Weather History & Observations

Time (CDT) Temp. Heat Index Dew Point Humidity Pressure Visibility Wind Dir Wind Speed Gust Speed Precip Events Conditions
12:53 AM 64.0 °F - 59.0 °F 84% 29.63 in 10.0 mi South 10.4 mph 18.4 mph N/A   Mostly Cloudy
1:53 AM 64.9 °F - 60.1 °F 84% 29.60 in 10.0 mi South 11.5 mph 20.7 mph N/A   Overcast
2:04 AM 64.4 °F - 60.8 °F 88% 29.62 in 10.0 mi South 11.5 mph 20.7 mph N/A   Overcast
2:20 AM 64.4 °F - 60.8 °F 88% 29.61 in 10.0 mi South 11.5 mph 25.3 mph N/A   Overcast
2:46 AM 66.2 °F - 60.8 °F 83% 29.61 in 10.0 mi South 12.7 mph 23.0 mph N/A   Overcast
2:53 AM 66.0 °F - 61.0 °F 84% 29.59 in 10.0 mi South 12.7 mph 20.7 mph N/A   Overcast
3:53 AM 64.9 °F - 61.0 °F 87% 29.57 in 10.0 mi South 12.7 mph 20.7 mph N/A   Overcast
4:19 AM 64.4 °F - 60.8 °F 88% 29.58 in 10.0 mi South 11.5 mph 21.9 mph N/A   Overcast
4:53 AM 64.9 °F - 61.0 °F 87% 29.55 in 9.0 mi South 12.7 mph 21.9 mph N/A   Overcast
5:53 AM 64.9 °F - 61.0 °F 87% 29.52 in 10.0 mi South 12.7 mph 24.2 mph N/A   Overcast
6:17 AM 66.2 °F - 62.6 °F 88% 29.54 in 10.0 mi South 12.7 mph 27.6 mph N/A   Overcast
6:53 AM 66.9 °F - 62.1 °F 84% 29.51 in 10.0 mi South 12.7 mph 24.2 mph N/A   Overcast
7:21 AM 66.2 °F - 62.6 °F 88% 29.52 in 10.0 mi South 13.8 mph 25.3 mph N/A   Overcast
7:53 AM 68.0 °F - 62.1 °F 81% 29.48 in 10.0 mi South 17.3 mph 27.6 mph N/A   Overcast
8:53 AM 69.1 °F - 62.1 °F 78% 29.49 in 10.0 mi South 15.0 mph 32.2 mph N/A   Overcast
9:53 AM 70.0 °F - 62.1 °F 76% 29.49 in 10.0 mi South 12.7 mph 23.0 mph N/A   Overcast
10:53 AM 72.0 °F - 63.0 °F 73% 29.49 in 10.0 mi South 17.3 mph 25.3 mph N/A   Overcast
11:53 AM 73.9 °F - 63.0 °F 68% 29.50 in 10.0 mi SSW 12.7 mph 24.2 mph N/A   Overcast
12:03 PM 73.4 °F - 62.6 °F 69% 29.51 in 10.0 mi SSW 12.7 mph 21.9 mph N/A   Overcast
12:53 PM 77.0 °F - 63.0 °F 62% 29.48 in 10.0 mi SW 15.0 mph 21.9 mph N/A   Mostly Cloudy
1:53 PM 82.0 °F 82.1 °F 59.0 °F 45% 29.48 in 10.0 mi West 12.7 mph - N/A   Mostly Cloudy
2:53 PM 82.0 °F 81.4 °F 55.0 °F 39% 29.50 in 10.0 mi WNW 10.4 mph - N/A   Clear
3:53 PM 80.1 °F 80.2 °F 55.9 °F 43% 29.54 in 10.0 mi NW 11.5 mph 18.4 mph N/A   Partly Cloudy
4:53 PM 82.0 °F 81.4 °F 55.0 °F 39% 29.56 in 10.0 mi NNW 15.0 mph 23.0 mph N/A   Mostly Cloudy
5:53 PM 77.0 °F - 55.0 °F 47% 29.61 in 10.0 mi NW 17.3 mph 24.2 mph N/A   Clear
6:53 PM 72.0 °F - 51.1 °F 48% 29.67 in 10.0 mi NW 9.2 mph - N/A   Clear
7:53 PM 68.0 °F - 46.0 °F 45% 29.70 in 10.0 mi NW 4.6 mph - N/A   Scattered Clouds
8:53 PM 57.9 °F - 48.0 °F 70% 29.73 in 10.0 mi Calm Calm - N/A   Partly Cloudy
9:53 PM 54.0 °F - 48.0 °F 80% 29.75 in 10.0 mi Calm Calm - N/A   Partly Cloudy
10:53 PM 61.0 °F - 41.0 °F 48% 29.77 in 10.0 mi NNW 8.1 mph - N/A   Scattered Clouds
11:53 PM 59.0 °F - 37.9 °F 46% 29.83 in 10.0 mi NW 5.8 mph - N/A   Scattered Clouds